LKCS Weather Reports


Display with metric or nautical units.
time (UTC)temp
F
wind
direction
speed
MPH
gust
MPH
rain 1hr
in
rain 24hr
in
rain mn
in
humidity
%
barometer
mb
20260503233304 54 0 2.0 0.0 0.00 0.00 0.00 62 1013.0
20260503230306 54 0 2.0 0.0 0.00 0.00 0.00 62 1013.0
20260503223231 59 0 2.0 0.0 0.00 0.00 0.00 51 1012.0
20260503220240 61 120 3.0 0.0 0.00 0.00 0.00 48 1012.0
20260503213305 61 120 6.0 0.0 0.00 0.00 0.00 48 1012.0
20260503210307 61 100 8.0 0.0 0.00 0.00 0.00 48 1012.0
20260503203231 64 110 9.0 0.0 0.00 0.00 0.00 42 1013.0
20260503200306 66 110 6.0 0.0 0.00 0.00 0.00 39 1013.0
20260503193305 66 0 2.0 0.0 0.00 0.00 0.00 39 1013.0
20260503190306 68 110 7.0 0.0 0.00 0.00 0.00 40 1013.0
20260503183238 68 110 9.0 0.0 0.00 0.00 0.00 37 1012.0
20260503180249 72 110 13.0 0.0 0.00 0.00 0.00 33 1012.0
20260503173305 73 110 14.0 0.0 0.00 0.00 0.00 31 1012.0
20260503170307 75 100 18.0 0.0 0.00 0.00 0.00 29 1012.0
20260503150306 79 100 15.0 0.0 0.00 0.00 0.00 22 1013.0
20260503140312 79 110 12.0 0.0 0.00 0.00 0.00 26 1013.0
20260503130311 79 80 10.0 0.0 0.00 0.00 0.00 24 1014.0
20260503110313 75 100 7.0 0.0 0.00 0.00 0.00 23 1015.0
20260503100246 73 80 5.0 0.0 0.00 0.00 0.00 29 1016.0
20260503090247 68 90 5.0 0.0 0.00 0.00 0.00 34 1017.0
20260503080314 63 0 2.0 0.0 0.00 0.00 0.00 42 1017.0
20260503070314 57 0 1.0 0.0 0.00 0.00 0.00 47 1018.0
20260503060304 50 0 1.0 0.0 0.00 0.00 0.00 66 1018.0
20260503053305 46 200 3.0 0.0 0.00 0.00 0.00 65 1017.0
20260503050246 43 0 2.0 0.0 0.00 0.00 0.00 81 1017.0
20260503043230 41 200 6.0 0.0 0.00 0.00 0.00 75 1017.0
20260503040306 39 190 3.0 0.0 0.00 0.00 0.00 80 1017.0
20260503033238 39 210 3.0 0.0 0.00 0.00 0.00 80 1017.0
20260503030246 41 200 6.0 0.0 0.00 0.00 0.00 75 1017.0
20260503023303 43 200 5.0 0.0 0.00 0.00 0.00 70 1017.0
20260503020305 43 210 3.0 0.0 0.00 0.00 0.00 70 1017.0
20260503013304 45 0 2.0 0.0 0.00 0.00 0.00 70 1018.0
20260503010306 45 0 2.0 0.0 0.00 0.00 0.00 70 1018.0
20260503003238 45 210 6.0 0.0 0.00 0.00 0.00 70 1018.0
20260503000313 46 0 2.0 0.0 0.00 0.00 0.00 65 1018.0